Weather History for KCAE - October, 2012

Change the Weather History Date:

Saturday, October 13, 2012

  Actual Average Record
Temperature  
Mean Temperature 64 °F 65 °F  
Max Temperature 75 °F 77 °F 90 °F (1954)
Min Temperature 53 °F 53 °F 34 °F (1988)
Degree Days  
Heating Degree Days 1 3  
Month to date heating degree days 29 26  
Since 1 July heating degree days 29 34  
Cooling Degree Days 0 3  
Month to date cooling degree days 66 54  
Year to date cooling degree days 2481 2121  
Growing Degree Days 15 (Base 50)    
Moisture  
Dew Point 49 °F    
Average Humidity 65    
Maximum Humidity 89    
Minimum Humidity 41    
Precipitation  
Precipitation 0.00 in 0.11 in 1.18 in (1893)
Month to date precipitation 1.12 1.41  
Year to date precipitation 37.33 36.87  
Sea Level Pressure  
Sea Level Pressure 30.34 in    
Wind  
Wind Speed 5 mph (ENE)    
Max Wind Speed 14 mph    
Max Gust Speed 20 mph    
Visibility 10 miles    
Events      
T = Trace of Precipitation, MM = Missing Value Source: NWS Daily Summary

Daily Weather History Graph

Daily Weather History Graph

Search for Another Location

Airport or City:

Trip Planner

Search our weather history database for the weather conditions in past years. The results will help you decide how hot, cold, wet, or windy it might be!

Date:

Astronomy

Oct. 13, 2012 Rise Set
Actual Time 7:28 AM EDT 6:52 PM EDT
Civil Twilight 7:03 AM EDT 7:17 PM EDT
Nautical Twilight 6:34 AM EDT 7:46 PM EDT
Astronomical Twilight 6:05 AM EDT 8:15 PM EDT
Moon 5:20 AM EDT (10/13) 5:32 PM EDT (10/13)
Length of Visible Light 12h 14m
Length of Day
11h 24m
Waning Crescent, 5% of the Moon is Illuminated
Oct 13
Waning Crescent
Oct 15
New
Oct 21
First Quarter
Oct 29
Full
Nov 6
Last Quarter

Hourly Weather History & Observations

Time (EDT) Temp. Dew Point Humidity Pressure Visibility Wind Dir Wind Speed Gust Speed Precip Events Conditions
12:56 AM 64.9 °F 54.0 °F 68% 30.27 in 10.0 mi East 3.5 mph - N/A   Mostly Cloudy
1:56 AM 60.8 °F 55.4 °F 82% 30.27 in 10.0 mi Calm Calm - N/A   Mostly Cloudy
2:56 AM 64.0 °F 51.1 °F 63% 30.28 in 10.0 mi ENE 6.9 mph - N/A   Partly Cloudy
3:56 AM 63.0 °F 48.9 °F 60% 30.29 in 10.0 mi ENE 5.8 mph - N/A   Clear
4:56 AM 61.0 °F 48.9 °F 64% 30.31 in 10.0 mi ENE 4.6 mph - N/A   Clear
6:56 AM 57.0 °F 46.9 °F 69% 30.36 in 10.0 mi NE 9.2 mph - N/A   Clear
7:56 AM 55.4 °F 46.4 °F 72% 30.38 in 10.0 mi ENE 9.2 mph - N/A   Mostly Cloudy
8:56 AM 57.0 °F 46.9 °F 69% 30.40 in 10.0 mi NNE 10.4 mph - N/A   Scattered Clouds
9:56 AM 59.0 °F 46.0 °F 62% 30.42 in 10.0 mi NE 9.2 mph - N/A   Clear
10:56 AM 62.1 °F 46.0 °F 56% 30.42 in 10.0 mi ENE 5.8 mph - N/A   Clear
11:56 AM 66.2 °F 46.4 °F 49% 30.42 in 10.0 mi NE 5.8 mph - N/A   Clear
12:56 PM 68.0 °F 46.9 °F 47% 30.39 in 10.0 mi NNE 6.9 mph - N/A   Clear
1:56 PM 71.1 °F 46.9 °F 42% 30.36 in 10.0 mi ENE 4.6 mph - N/A   Clear
2:56 PM 73.0 °F 48.0 °F 41% 30.33 in 10.0 mi Variable 5.8 mph - N/A   Scattered Clouds
3:56 PM 73.4 °F 48.2 °F 41% 30.31 in 10.0 mi East 8.1 mph - N/A   Scattered Clouds
4:56 PM 73.4 °F 48.2 °F 41% 30.31 in 10.0 mi East 6.9 mph - N/A   Scattered Clouds
5:56 PM 72.0 °F 48.9 °F 44% 30.30 in 10.0 mi ESE 9.2 mph - N/A   Scattered Clouds
6:56 PM 69.1 °F 48.9 °F 49% 30.30 in 10.0 mi East 5.8 mph - N/A   Partly Cloudy
7:56 PM 66.9 °F 48.9 °F 52% 30.31 in 10.0 mi ENE 3.5 mph - N/A   Partly Cloudy
9:56 PM 62.1 °F 50.0 °F 65% 30.33 in 10.0 mi Calm Calm - N/A   Clear
10:56 PM 59.0 °F 51.1 °F 75% 30.33 in 10.0 mi Calm Calm - N/A   Clear
11:56 PM 54.0 °F 50.0 °F 86% 30.32 in 10.0 mi Calm Calm - N/A   Clear